Погода в Верхних Татышлах

Россия / Республика Башкортостан     56°17′31″N   55°51′21″E
темп.,
°C
ветер,
м/с
пор.,
м/с
влажн.,
%
обл.,
%
осадки,
мм/ч
давл.,
гПа
погр.,
м
18 апреля, вс
вс1823:00+5с22640 0.0 102318
02:00+4с22700 0.0 102212
05:00+3ссз22735 0.0 102214
08:00+5ссз25695 0.0 1020146
11:00+9с56565 0.0 10211070
14:00+6ссв676249 0.0 10231074
17:00+8св68353 0.0 10241759
20:00+5всв7105030 0.0 1026909
19 апреля, пн
пн1923:00+2всв713495 0.0 1028765
02:00−1всв6134912 0.0 1030606
05:00−1всв612495 0.0 1032622
08:00−1в711417 0.0 1033992
11:00+2в79280 0.0 10331409
14:00+5в68260 0.0 10331713
17:00+5в67270 0.0 10321760
20:00+3в47410 0.0 1033179
20 апреля, вт
вт2023:000в35510 0.0 103475
02:00−1юв23540 0.0 103539
05:00−1ююв11510 0.0 103610
08:00+1вюв11415 0.0 1036149
11:00+5ссв11315 0.0 1036952
14:00+7сз22294 0.0 10341296
17:00+8сз23310 0.0 10331312
20:00+6сз22450 0.0 103218
21 апреля, ср
ср2123:00+3с22520 0.0 103310
02:00+2св11550 0.0 103310
05:00+1в22590 0.0 103313
08:00+3вюв12530 0.0 1033115
11:00+8юв23404 0.0 1033753
14:00+11ююв3334100 0.0 10321243
17:00+12юв4533100 0.0 10301206
20:00+9ю344983 0.0 103157
22 апреля, чт
чт2223:00+6юв345442 0.0 103143
02:00+5ююв356099 0.0 103172
05:00+4ююв41261100 0.0 1032237
08:00+6ю51357100 0.0 1032498
11:00+9ю61144100 0.0 1032936
14:00+11ю71040100 0.0 10321224
17:00+11ю5840100 0.0 10321597
20:00+9ююв374991 0.0 1032159